Hourly Data Report for October 04, 2015

All times are specified in Local Standard Time (LST). Add 1 hour to adjust for Daylight Saving Time where and when it is observed.

SAINT JOHN A
NEW BRUNSWICK

45°18'58.000" N
65°53'24.000" W
108.80 m
8104901
71609
YSJ

Download Data

Hourly Data (October 2015)
Hourly Data Report for October 4, 2015
Temp Definition
°C
Dew Point Temp Definition
°C
Rel Hum Definition
%
Wind Dir Definition
10's deg

Wind Spd Definition
km/h
Visibility Definition
km
Stn Press Definition
kPa
Hmdx Definition


Wind Chill Definition


Weather Definition


TIME
00:00 Legend Double Dagger 2.8 1.6 92 2 16 24.1 102.04     LegendNANA
01:00 Legend Double Dagger 1.3 0.4 94 4 13 24.1 102.00     LegendNANA
02:00 Legend Double Dagger 1.9 1.2 95 10 5 24.1 102.01     Clear
03:00 Legend Double Dagger 0.9 0.3 96 8 6 24.1 101.98     LegendNANA
04:00 Legend Double Dagger 1.2 0.6 96 6 12 24.1 101.95     LegendNANA
05:00 Legend Double Dagger 1.0 0.6 97 14 3 24.1 101.95     Clear
06:00 Legend Double Dagger 0.4 0.0 97 5 9 24.1 101.94     LegendNANA
07:00 Legend Double Dagger 1.4 0.5 94 2 8 24.1 101.95     LegendNANA
08:00 Legend Double Dagger 5.6 3.3 85 2 10 24.1 102.01     Mainly Clear
09:00 Legend Double Dagger 8.5 4.5 76 1 16 24.1 101.97     LegendNANA
10:00 Legend Double Dagger 11.4 4.7 63 2 17 24.1 101.96     LegendNANA
11:00 Legend Double Dagger 12.8 3.8 54 5 21 24.1 101.91     Mostly Cloudy
12:00 Legend Double Dagger 13.8 4.2 52 2 17 24.1 101.84     LegendNANA
13:00 Legend Double Dagger 14.9 4.9 51 36 18 24.1 101.73     LegendNANA
14:00 Legend Double Dagger 13.9 4.3 52 36 17 24.1 101.66     Mostly Cloudy
15:00 Legend Double Dagger 15.9 5.3 49 36 14 24.1 101.64     LegendNANA
16:00 Legend Double Dagger 15.5 6.6 55 2 17 24.1 101.57     LegendNANA
17:00 Legend Double Dagger 14.1 6.0 58 3 13 24.1 101.57     Mostly Cloudy
18:00 Legend Double Dagger 10.1 7.5 84 36 1 24.1 101.56     LegendNANA
19:00 Legend Double Dagger 5.9 5.2 95 36 4 24.1 101.54     LegendNANA
20:00 Legend Double Dagger 5.6 4.7 94 2 4 24.1 101.55     Mainly Clear
21:00 Legend Double Dagger 4.1 3.5 96 2 5 24.1 101.51     LegendNANA
22:00 Legend Double Dagger 2.6 1.9 95 34 5 24.1 101.49     LegendNANA
23:00 Legend Double Dagger 3.8 3.5 98 6 4 24.1 101.46     Clear

Notes on Data Quality.

Legend

  • E = Estimated
  • M = Missing
  • NA = Not Available
  • ‡ = Partner data that is not subject to review by the National Climate Archives
Date modified: